Time,TemperatureF,DewpointF,PressureIn,WindDirection,WindDirectionDegrees,WindSpeedMPH,WindSpeedGustMPH,Humidity,HourlyPrecipIn,Conditions,Clouds,dailyrainin,SoftwareType,DateUTC
2013-02-03 00:01:00,23.0,14.0,-100.00,SSW,199,2.0,2.0,68,-99.99,,,-99.99,,2013-02-03 07:01:00,
2013-02-03 00:11:00,23.0,14.0,-100.00,SSW,199,2.0,2.0,68,-99.99,,,-99.99,,2013-02-03 07:11:00,
2013-02-03 00:21:00,23.0,15.0,-100.00,North,0,0.0,0.0,70,-99.99,,,-99.99,,2013-02-03 07:21:00,
2013-02-03 00:31:00,23.0,15.0,-100.00,North,0,0.0,0.0,70,-99.99,,,-99.99,,2013-02-03 07:31:00,
2013-02-03 00:41:00,23.0,15.0,-100.00,North,0,0.0,0.0,70,-99.99,,,-99.99,,2013-02-03 07:41:00,
2013-02-03 01:52:00,23.0,14.0,-100.00,South,189,0.0,1.0,69,-99.99,,,-99.99,,2013-02-03 08:52:00,
2013-02-03 02:02:00,23.0,14.0,-100.00,SSW,206,1.0,2.0,68,-99.99,,,-99.99,,2013-02-03 09:02:00,
2013-02-03 02:11:00,23.0,14.0,-100.00,SSW,206,1.0,2.0,68,-99.99,,,-99.99,,2013-02-03 09:11:00,
2013-02-03 02:21:00,22.0,13.0,-100.00,South,171,0.0,1.0,68,-99.99,,,-99.99,,2013-02-03 09:21:00,
2013-02-03 02:31:00,22.0,13.0,-100.00,SSW,204,0.0,1.0,67,-99.99,,,-99.99,,2013-02-03 09:31:00,
2013-02-03 02:41:00,22.0,13.0,-100.00,SSW,204,0.0,1.0,67,-99.99,,,-99.99,,2013-02-03 09:41:00,
2013-02-03 02:51:00,23.0,12.0,-100.00,SSW,195,0.0,1.0,63,-99.99,,,-99.99,,2013-02-03 09:51:00,
2013-02-03 03:01:00,22.0,13.0,-100.00,SSW,199,0.0,1.0,68,-99.99,,,-99.99,,2013-02-03 10:01:00,
2013-02-03 03:11:00,22.0,13.0,-100.00,SSW,199,0.0,1.0,68,-99.99,,,-99.99,,2013-02-03 10:11:00,
2013-02-03 03:21:00,22.0,13.0,-100.00,East,85,0.0,0.0,67,-99.99,,,-99.99,,2013-02-03 10:21:00,
2013-02-03 03:31:00,23.0,12.0,-100.00,SSW,205,1.0,2.0,62,-99.99,,,-99.99,,2013-02-03 10:31:00,
2013-02-03 03:41:00,23.0,12.0,-100.00,SSW,205,1.0,2.0,62,-99.99,,,-99.99,,2013-02-03 10:41:00,
2013-02-03 03:52:00,22.0,12.0,-100.00,SSE,148,0.0,0.0,64,-99.99,,,-99.99,,2013-02-03 10:52:00,
2013-02-03 04:02:00,22.0,12.0,-100.00,East,88,0.0,1.0,64,-99.99,,,-99.99,,2013-02-03 11:02:00,
2013-02-03 04:11:00,22.0,12.0,-100.00,East,88,0.0,1.0,64,-99.99,,,-99.99,,2013-02-03 11:11:00,
2013-02-03 04:22:00,22.0,12.0,-100.00,SSE,165,0.0,0.0,66,-99.99,,,-99.99,,2013-02-03 11:22:00,
2013-02-03 04:31:00,21.0,12.0,-100.00,SSE,162,0.0,0.0,69,-99.99,,,-99.99,,2013-02-03 11:31:00,
2013-02-03 04:41:00,21.0,12.0,-100.00,SSE,162,0.0,0.0,69,-99.99,,,-99.99,,2013-02-03 11:41:00,
2013-02-03 04:52:00,22.0,13.0,-100.00,South,177,0.0,1.0,68,-99.99,,,-99.99,,2013-02-03 11:52:00,
2013-02-03 05:02:00,22.0,13.0,-100.00,North,0,0.0,0.0,69,-99.99,,,-99.99,,2013-02-03 12:02:00,
2013-02-03 05:22:00,22.0,14.0,-100.00,WNW,299,0.0,0.0,70,-99.99,,,-99.99,,2013-02-03 12:22:00,
2013-02-03 05:32:00,22.0,12.0,-100.00,South,183,0.0,1.0,64,-99.99,,,-99.99,,2013-02-03 12:32:00,
2013-02-03 05:42:00,22.0,12.0,-100.00,South,183,0.0,1.0,64,-99.99,,,-99.99,,2013-02-03 12:42:00,
2013-02-03 05:52:00,22.0,12.0,-100.00,SSE,168,0.0,1.0,66,-99.99,,,-99.99,,2013-02-03 12:52:00,
2013-02-03 06:03:00,22.0,12.0,-100.00,South,175,0.0,1.0,65,-99.99,,,-99.99,,2013-02-03 13:03:00,
2013-02-03 06:11:00,22.0,12.0,-100.00,South,175,0.0,1.0,65,-99.99,,,-99.99,,2013-02-03 13:11:00,
2013-02-03 06:21:00,22.0,12.0,-100.00,North,0,0.0,0.0,64,-99.99,,,-99.99,,2013-02-03 13:21:00,
2013-02-03 06:32:00,22.0,11.0,-100.00,SSW,206,1.0,2.0,61,-99.99,,,-99.99,,2013-02-03 13:32:00,
2013-02-03 06:42:00,22.0,11.0,-100.00,SSW,206,1.0,2.0,61,-99.99,,,-99.99,,2013-02-03 13:42:00,
2013-02-03 06:52:00,23.0,12.0,-100.00,South,182,0.0,0.0,62,-99.99,,,-99.99,,2013-02-03 13:52:00,
2013-02-03 07:02:00,22.0,11.0,-100.00,ESE,110,0.0,0.0,62,-99.99,,,-99.99,,2013-02-03 14:02:00,
2013-02-03 07:11:00,22.0,11.0,-100.00,ESE,110,0.0,0.0,62,-99.99,,,-99.99,,2013-02-03 14:11:00,
2013-02-03 07:21:00,22.0,12.0,-100.00,NE,50,0.0,1.0,64,-99.99,,,-99.99,,2013-02-03 14:21:00,
2013-02-03 07:32:00,21.0,10.0,-100.00,SSW,208,0.0,1.0,63,-99.99,,,-99.99,,2013-02-03 14:32:00,
2013-02-03 07:42:00,21.0,10.0,-100.00,SSW,208,0.0,1.0,63,-99.99,,,-99.99,,2013-02-03 14:42:00,
2013-02-03 07:52:00,21.0,11.0,-100.00,SW,230,0.0,1.0,66,-99.99,,,-99.99,,2013-02-03 14:52:00,
2013-02-03 08:03:00,21.0,11.0,-100.00,NNW,338,0.0,0.0,66,-99.99,,,-99.99,,2013-02-03 15:03:00,
2013-02-03 08:11:00,21.0,11.0,-100.00,NNW,338,0.0,0.0,66,-99.99,,,-99.99,,2013-02-03 15:11:00,
2013-02-03 08:21:00,21.0,11.0,-100.00,North,0,0.0,0.0,66,-99.99,,,-99.99,,2013-02-03 15:21:00,
2013-02-03 08:32:00,21.0,10.0,-100.00,SW,215,0.0,1.0,62,-99.99,,,-99.99,,2013-02-03 15:32:00,
2013-02-03 08:41:00,21.0,10.0,-100.00,SW,215,0.0,1.0,62,-99.99,,,-99.99,,2013-02-03 15:41:00,
2013-02-03 08:51:00,22.0,11.0,-100.00,SSW,205,0.0,1.0,63,-99.99,,,-99.99,,2013-02-03 15:51:00,
2013-02-03 09:02:00,23.0,12.0,-100.00,South,189,0.0,2.0,63,-99.99,,,-99.99,,2013-02-03 16:02:00,
2013-02-03 09:11:00,23.0,12.0,-100.00,South,189,0.0,2.0,63,-99.99,,,-99.99,,2013-02-03 16:11:00,
2013-02-03 09:21:00,23.0,14.0,-100.00,SSE,168,0.0,0.0,67,-99.99,,,-99.99,,2013-02-03 16:21:00,
2013-02-03 09:32:00,24.0,14.0,-100.00,SE,124,0.0,0.0,64,-99.99,,,-99.99,,2013-02-03 16:32:00,
2013-02-03 09:41:00,24.0,14.0,-100.00,SE,124,0.0,0.0,64,-99.99,,,-99.99,,2013-02-03 16:41:00,
2013-02-03 09:52:00,26.0,14.0,-100.00,SE,129,0.0,1.0,60,-99.99,,,-99.99,,2013-02-03 16:52:00,
2013-02-03 10:02:00,27.0,14.0,-100.00,SE,129,0.0,1.0,58,-99.99,,,-99.99,,2013-02-03 17:02:00,
2013-02-03 10:31:00,30.0,12.0,-100.00,North,0,0.0,0.0,47,-99.99,,,-99.99,,2013-02-03 17:31:00,
2013-02-03 10:42:00,30.0,12.0,-100.00,North,0,0.0,0.0,47,-99.99,,,-99.99,,2013-02-03 17:42:00,
2013-02-03 10:52:00,30.0,11.0,-100.00,SSW,198,0.0,1.0,45,-99.99,,,-99.99,,2013-02-03 17:52:00,
2013-02-03 11:02:00,30.0,15.0,-100.00,East,100,0.0,1.0,54,-99.99,,,-99.99,,2013-02-03 18:02:00,
2013-02-03 11:11:00,30.0,15.0,-100.00,East,100,0.0,1.0,54,-99.99,,,-99.99,,2013-02-03 18:11:00,
2013-02-03 11:23:00,31.0,10.0,-100.00,SSW,210,0.0,1.0,41,-99.99,,,-99.99,,2013-02-03 18:23:00,
2013-02-03 11:32:00,31.0,7.0,-100.00,NE,47,1.0,3.0,35,-99.99,,,-99.99,,2013-02-03 18:32:00,
2013-02-03 11:41:00,31.0,7.0,-100.00,NE,47,1.0,3.0,35,-99.99,,,-99.99,,2013-02-03 18:41:00,
2013-02-03 11:51:00,32.0,8.0,-100.00,North,9,0.0,1.0,36,-99.99,,,-99.99,,2013-02-03 18:51:00,
2013-02-03 12:02:00,32.0,8.0,-100.00,ENE,57,0.0,1.0,36,-99.99,,,-99.99,,2013-02-03 19:02:00,
2013-02-03 12:11:00,32.0,8.0,-100.00,ENE,57,0.0,1.0,36,-99.99,,,-99.99,,2013-02-03 19:11:00,
2013-02-03 12:21:00,35.0,8.0,-100.00,NE,49,0.0,2.0,32,-99.99,,,-99.99,,2013-02-03 19:21:00,
2013-02-03 12:31:00,34.0,9.0,-100.00,NE,44,2.0,3.0,34,-99.99,,,-99.99,,2013-02-03 19:31:00,
2013-02-03 12:41:00,34.0,9.0,-100.00,NE,44,2.0,3.0,34,-99.99,,,-99.99,,2013-02-03 19:41:00,
2013-02-03 12:51:00,33.0,9.0,-100.00,North,359,1.0,3.0,36,-99.99,,,-99.99,,2013-02-03 19:51:00,
2013-02-03 13:01:00,35.0,10.0,-100.00,NNW,342,1.0,2.0,35,-99.99,,,-99.99,,2013-02-03 20:01:00,
2013-02-03 13:11:00,35.0,10.0,-100.00,NNW,342,1.0,2.0,35,-99.99,,,-99.99,,2013-02-03 20:11:00,
2013-02-03 13:21:00,34.0,9.0,-100.00,NW,321,1.0,2.0,35,-99.99,,,-99.99,,2013-02-03 20:21:00,
2013-02-03 13:32:00,34.0,10.0,-100.00,NNW,347,1.0,3.0,36,-99.99,,,-99.99,,2013-02-03 20:32:00,
2013-02-03 13:42:00,34.0,10.0,-100.00,NNW,347,1.0,3.0,36,-99.99,,,-99.99,,2013-02-03 20:42:00,
2013-02-03 13:52:00,34.0,9.0,-100.00,NNW,339,2.0,4.0,34,-99.99,,,-99.99,,2013-02-03 20:52:00,
2013-02-03 14:02:00,37.0,10.0,-100.00,NNE,13,1.0,2.0,32,-99.99,,,-99.99,,2013-02-03 21:02:00,
2013-02-03 14:11:00,37.0,10.0,-100.00,NNE,13,1.0,2.0,32,-99.99,,,-99.99,,2013-02-03 21:11:00,
2013-02-03 14:21:00,35.0,10.0,-100.00,NE,45,2.0,3.0,35,-99.99,,,-99.99,,2013-02-03 21:21:00,
2013-02-03 14:32:00,36.0,11.0,-100.00,North,354,1.0,3.0,35,-99.99,,,-99.99,,2013-02-03 21:32:00,
2013-02-03 14:42:00,36.0,11.0,-100.00,North,354,1.0,3.0,35,-99.99,,,-99.99,,2013-02-03 21:42:00,
2013-02-03 14:51:00,35.0,11.0,-100.00,WSW,240,1.0,1.0,37,-99.99,,,-99.99,,2013-02-03 21:51:00,
2013-02-03 15:01:00,32.0,12.0,-100.00,WSW,253,0.0,1.0,43,-99.99,,,-99.99,,2013-02-03 22:01:00,
2013-02-03 15:11:00,32.0,12.0,-100.00,WSW,253,0.0,1.0,43,-99.99,,,-99.99,,2013-02-03 22:11:00,
2013-02-03 15:21:00,33.0,12.0,-100.00,NNW,331,2.0,4.0,41,-99.99,,,-99.99,,2013-02-03 22:21:00,
2013-02-03 15:32:00,33.0,13.0,-100.00,North,11,1.0,3.0,43,-99.99,,,-99.99,,2013-02-03 22:32:00,
2013-02-03 15:41:00,33.0,13.0,-100.00,North,11,1.0,3.0,43,-99.99,,,-99.99,,2013-02-03 22:41:00,
2013-02-03 15:51:00,32.0,14.0,-100.00,SW,231,1.0,1.0,46,-99.99,,,-99.99,,2013-02-03 22:51:00,
2013-02-03 16:01:00,30.0,14.0,-100.00,SSW,208,1.0,2.0,51,-99.99,,,-99.99,,2013-02-03 23:01:00,
2013-02-03 16:11:00,30.0,14.0,-100.00,SSW,208,1.0,2.0,51,-99.99,,,-99.99,,2013-02-03 23:11:00,
2013-02-03 16:22:00,30.0,15.0,-100.00,WSW,254,0.0,1.0,52,-99.99,,,-99.99,,2013-02-03 23:22:00,
2013-02-03 16:32:00,30.0,14.0,-100.00,West,280,1.0,3.0,50,-99.99,,,-99.99,,2013-02-03 23:32:00,
2013-02-03 16:41:00,30.0,14.0,-100.00,West,280,1.0,3.0,50,-99.99,,,-99.99,,2013-02-03 23:41:00,
2013-02-03 16:52:00,28.0,15.0,-100.00,SW,217,0.0,1.0,58,-99.99,,,-99.99,,2013-02-03 23:52:00,
2013-02-03 17:01:00,27.0,15.0,-100.00,South,177,0.0,2.0,60,-99.99,,,-99.99,,2013-02-04 00:01:00,
2013-02-03 17:11:00,27.0,15.0,-100.00,South,177,0.0,2.0,60,-99.99,,,-99.99,,2013-02-04 00:11:00,
2013-02-03 17:21:00,26.0,13.0,-100.00,SSE,157,0.0,2.0,58,-99.99,,,-99.99,,2013-02-04 00:21:00,
2013-02-03 17:31:00,25.0,12.0,-100.00,SE,144,1.0,3.0,58,-99.99,,,-99.99,,2013-02-04 00:31:00,
2013-02-03 17:41:00,25.0,12.0,-100.00,SE,144,1.0,3.0,58,-99.99,,,-99.99,,2013-02-04 00:41:00,
2013-02-03 17:51:00,26.0,11.0,-100.00,NE,40,0.0,1.0,52,-99.99,,,-99.99,,2013-02-04 00:51:00,
2013-02-03 18:01:00,25.0,13.0,-100.00,SSE,155,1.0,2.0,61,-99.99,,,-99.99,,2013-02-04 01:01:00,
2013-02-03 18:11:00,25.0,13.0,-100.00,SSE,155,1.0,2.0,61,-99.99,,,-99.99,,2013-02-04 01:11:00,
2013-02-03 18:21:00,24.0,14.0,-100.00,North,0,0.0,0.0,64,-99.99,,,-99.99,,2013-02-04 01:21:00,
2013-02-03 18:31:00,23.0,12.0,-100.00,South,185,1.0,2.0,61,-99.99,,,-99.99,,2013-02-04 01:31:00,
2013-02-03 18:41:00,23.0,12.0,-100.00,South,185,1.0,2.0,61,-99.99,,,-99.99,,2013-02-04 01:41:00,
2013-02-03 18:52:00,23.0,12.0,-100.00,South,178,1.0,1.0,63,-99.99,,,-99.99,,2013-02-04 01:52:00,
2013-02-03 19:01:00,22.0,10.0,-100.00,East,80,0.0,0.0,59,-99.99,,,-99.99,,2013-02-04 02:01:00,
2013-02-03 19:11:00,22.0,10.0,-100.00,East,80,0.0,0.0,59,-99.99,,,-99.99,,2013-02-04 02:11:00,
2013-02-03 19:21:00,22.0,12.0,-100.00,East,90,0.0,0.0,65,-99.99,,,-99.99,,2013-02-04 02:21:00,
2013-02-03 19:31:00,22.0,14.0,-100.00,SSW,201,1.0,2.0,70,-99.99,,,-99.99,,2013-02-04 02:31:00,
2013-02-03 19:41:00,22.0,14.0,-100.00,SSW,201,1.0,2.0,70,-99.99,,,-99.99,,2013-02-04 02:41:00,
2013-02-03 19:52:00,21.0,13.0,-100.00,SSW,206,1.0,2.0,71,-99.99,,,-99.99,,2013-02-04 02:52:00,
2013-02-03 20:01:00,21.0,13.0,-100.00,South,173,1.0,2.0,70,-99.99,,,-99.99,,2013-02-04 03:01:00,
2013-02-03 20:11:00,21.0,13.0,-100.00,South,173,1.0,2.0,70,-99.99,,,-99.99,,2013-02-04 03:11:00,
2013-02-03 20:21:00,23.0,11.0,-100.00,South,177,1.0,1.0,59,-99.99,,,-99.99,,2013-02-04 03:21:00,
2013-02-03 20:31:00,21.0,11.0,-100.00,SSE,149,0.0,1.0,65,-99.99,,,-99.99,,2013-02-04 03:31:00,
2013-02-03 20:41:00,21.0,11.0,-100.00,SSE,149,0.0,1.0,65,-99.99,,,-99.99,,2013-02-04 03:41:00,
2013-02-03 20:51:00,21.0,12.0,-100.00,SSE,153,0.0,1.0,67,-99.99,,,-99.99,,2013-02-04 03:51:00,
2013-02-03 21:01:00,21.0,12.0,-100.00,SSW,198,0.0,1.0,67,-99.99,,,-99.99,,2013-02-04 04:01:00,
2013-02-03 21:11:00,21.0,12.0,-100.00,SSW,198,0.0,1.0,67,-99.99,,,-99.99,,2013-02-04 04:11:00,
2013-02-03 21:21:00,21.0,11.0,-100.00,South,180,1.0,2.0,65,-99.99,,,-99.99,,2013-02-04 04:21:00,
2013-02-03 21:31:00,21.0,11.0,-100.00,SSE,160,0.0,1.0,65,-99.99,,,-99.99,,2013-02-04 04:31:00,
2013-02-03 21:41:00,21.0,11.0,-100.00,SSE,160,0.0,1.0,65,-99.99,,,-99.99,,2013-02-04 04:41:00,
2013-02-03 21:52:00,20.0,11.0,-100.00,SSE,150,0.0,1.0,68,-99.99,,,-99.99,,2013-02-04 04:52:00,
2013-02-03 22:03:00,19.0,11.0,-100.00,SSE,150,0.0,1.0,70,-99.99,,,-99.99,,2013-02-04 05:03:00,
2013-02-03 22:11:00,19.0,11.0,-100.00,SSE,150,0.0,1.0,70,-99.99,,,-99.99,,2013-02-04 05:11:00,
2013-02-03 22:22:00,19.0,11.0,-100.00,SSE,152,0.0,1.0,72,-99.99,,,-99.99,,2013-02-04 05:22:00,
2013-02-03 22:33:00,19.0,11.0,-100.00,South,191,0.0,0.0,72,-99.99,,,-99.99,,2013-02-04 05:33:00,
2013-02-03 22:42:00,19.0,11.0,-100.00,South,191,0.0,0.0,72,-99.99,,,-99.99,,2013-02-04 05:42:00,
2013-02-03 22:52:00,20.0,12.0,-100.00,South,185,0.0,1.0,70,-99.99,,,-99.99,,2013-02-04 05:52:00,
2013-02-03 23:01:00,20.0,12.0,-100.00,SSE,153,0.0,2.0,70,-99.99,,,-99.99,,2013-02-04 06:01:00,
2013-02-03 23:11:00,20.0,12.0,-100.00,SSE,153,0.0,2.0,70,-99.99,,,-99.99,,2013-02-04 06:11:00,
2013-02-03 23:21:00,19.0,12.0,-100.00,South,191,0.0,1.0,73,-99.99,,,-99.99,,2013-02-04 06:21:00,
2013-02-03 23:31:00,19.0,12.0,-100.00,South,191,0.0,1.0,73,-99.99,,,-99.99,,2013-02-04 06:31:00,
2013-02-03 23:41:00,19.0,12.0,-100.00,South,191,0.0,1.0,73,-99.99,,,-99.99,,2013-02-04 06:41:00,
2013-02-03 23:51:00,19.0,12.0,-100.00,SSW,206,0.0,2.0,73,-99.99,,,-99.99,,2013-02-04 06:51:00,